www.pogodaiklimat.ru

Погода и климат >> Архив погоды >> Индия >> Телингана >> Хайдарабад


ПОГОДА в Хайдарабаде

  • Прогноз погоды в Хайдарабаде
  • Монитор погоды в Хайдарабаде

АРХИВ ПОГОДЫ в Хайдарабаде

Время (UTC), дата Ветер
(напр.,м/с)
 
Видим.   Явления Облачность Т
(С)
Тd
(С)
f
(%)
Тe
(С)
Тes
(С)
Комфортность P
(гПа)
Po
(гПа)
Тmin
(С)
Tmax
(С)
R
(мм)
R24
(мм)
S
(см)
18 11.08 З 3 4000 м мгла 6/5 600 м
[Sc Ci fib]
+27.4 +21.6 71 +35 +35 очень
душно
1004.6 945.2
21 11.08 З 2 4000 м мгла 6/4 600 м
[Sc Ci fib]
+26.2 +21.5 75 +33 +33 очень
душно
1003.5 944.0
00 12.08 З 2 4000 м мгла 6/4 600 м
[Sc Ci fib]
+24.6 +21.0 80 +31 +31 очень
душно
1003.8 943.9
03 12.08 З 3 10 км мгла 4/4 600 м
[Sc]
+26.0 +21.9 78 +33 +37 очень
душно
1005.4 945.6 +23.7 +31.8
06 12.08 З 5 10 км мгла 8/6 450 м
[Sc Ci fib]
+29.8 +22.0 63 +38 +43 очень
душно
1004.3 945.3
09 12.08 СЗ 2 4000 м мгла 9/6 600 м
[Cu Sc Ac trans]
+31.8 +21.8 55 +40 +44 очень
душно
1002.6 944.1 0.0
12 12.08 СЗ 2 4000 м мгла {гроза} 9/6 600 м
[Cu Sc Ac trans]
+26.6 +22.5 78 +35 +35 очень
душно
1002.7 943.2 +31.4 0.0
15 12.08 нст 1 4000 м мгла 8/5 600 м
[Sc Ci fib]
+26.2 +22.4 80 +34 +34 очень
душно
1003.4 943.9 0.0
18 12.08 штиль 0 4000 м мгла 8/5 600 м
[Sc Ci fib]
+25.8 +22.6 83 +34 +34 очень
душно
1003.9 944.2 0.0
21 12.08 штиль 0 4000 м мгла 8/5 600 м
[Sc Ci fib]
+24.6 +21.9 85 +32 +32 очень
душно
1002.3 942.5 0.0
00 13.08 З 2 4000 м мгла 9/6 450 м
[Sc Ci fib]
+25.4 +21.9 81 +33 +33 очень
душно
1002.8 943.1 0.0
03 13.08 З 3 4000 м мгла 9/5 450 м
[Sc Ci fib]
+26.0 +21.6 77 +33 +36 очень
душно
1004.9 945.1 +24.6 +31.4 0.0
06 13.08 СЗ 2 4000 м мгла 9/6 450 м
[Sc Ci fib]
+28.4 +22.7 71 +38 +45 очень
душно
1005.4 946.2
09 13.08 З 3 4000 м мгла 9/5 450 м
[Cu Sc Ac As Ci fib]
+30.0 +21.9 62 +39 +42 очень
душно
1002.6 943.7
12 13.08 нст 1 4000 м мгла 10/5 600 м
[Cu Sc As op]
+27.4 +22.8 76 +36 +37 очень
душно
1002.0 942.9 +30.4
15 13.08 штиль 0 4000 м мгла 4/4 600 м
[Sc]
+26.6 +23.1 81 +36 +36 очень
душно
1004.5 945.0
18 13.08 штиль 0 4000 м мгла 4/4 600 м
[Sc]
+25.8 +23.2 86 +35 +35 очень
душно
1005.7 945.9
21 13.08 З 2 4000 м мгла 8/4 600 м
[Sc Ac trans]
+26.0 +22.8 83 +35 +35 очень
душно
1003.7 944.0
00 14.08 З 2 4000 м в посл. час дождь 8/5 300 м
[Frnb As op]
+24.0 +22.8 93 +32 +32 очень
душно
1004.3 944.2 1
03 14.08 З 2 4000 м мгла 9/4 600 м
[Sc Ac trans Ci sp]
+26.0 +22.2 80 +34 +37 очень
душно
1005.8 946.0 +23.8 +30.4 1
06 14.08 З 2 4000 м мгла 9/6 450 м
[Cu Sc Ac As Cs]
+29.2 +22.0 65 +38 +43 очень
душно
1004.6 945.6
09 14.08 З 2 4000 м мгла 9/5 600 м
[Cu Sc Ac trans Ci fib]
+31.2 +23.0 62 +41 +47 опасность
перегрева
1002.7 944.2
12 14.08 нст 1 4000 м мгла 10/5 600 м
[Sc Ac trans Ci fib]
+30.0 +21.6 61 +38 +39 очень
душно
1002.0 943.1 +32.0
15 14.08 нст 1 4000 м мгла 8/4 600 м
[Sc Ci fib]
+28.0 +22.5 72 +37 +37 очень
душно
1005.1 945.7
18 14.08 ЮЗ 2 4000 м мгла 6/4 600 м
[Sc Ci fib]
+27.2 +22.0 73 +35 +35 очень
душно
1005.8 946.4
21 14.08 З 3 4000 м мгла 9/6 450 м
[Sc Ci fib]
+26.4 +21.7 75 +34 +34 очень
душно
1005.3 945.7
00 15.08 З 2 4000 м мгла 5/4 600 м
[Sc Ci fib]
+25.0 +21.5 81 +32 +32 очень
душно
1005.9 945.9
03 15.08 З 2 4000 м мгла 8/5 450 м
[Frnb Ac trans Ci fib]
+26.4 +22.3 78 +34 +37 очень
душно
1007.2 947.4 +24.2 +32.0
06 15.08 З 3 4000 м мгла 9/6 600 м
[Cu Sc Ac trans Ci fib]
+28.6 +22.3 69 +37 +42 очень
душно
1006.7 947.4
09 15.08 З 2 10 км мгла 9/6 450 м
[Cu Sc Ac trans]
+31.0 +22.8 62 +41 +44 опасность
перегрева
1004.4 945.6
12 15.08 З 3 10 км мгла 6/6 600 м
[Cu Sc]
+31.6 +22.8 60 +42 +42 опасность
перегрева
1002.9 944.4 +32.6
15 15.08 нст 1 4000 м мгла 4/0
[Ci fib]
+28.6 +21.3 65 +36 +36 очень
душно
1005.2 946.0
18 15.08 штиль 0 4000 м мгла 9/5 600 м
[Sc Ac trans Ci fib]
+27.0 +22.4 76 +35 +35 очень
душно
1006.6 947.0
21 15.08 нст 1 4000 м мгла 9/5 600 м
[Sc Ac trans Ci fib]
+26.0 +22.2 80 +34 +34 очень
душно
1005.9 946.1
00 16.08 З 3 4000 м мгла 6/4 600 м
[Sc Ac trans Ci fib]
+25.0 +21.8 82 +32 +32 очень
душно
1006.4 946.4
03 16.08 З 2 4000 м мгла 5/4 600 м
[Sc Ci fib]
+27.4 +21.9 72 +35 +40 очень
душно
1006.3 946.9 +24.3 +32.6
06 16.08 З 3 4000 м мгла 6/5 450 м
[Sc Ci fib]
+31.2 +21.4 56 +39 +48 очень
душно
1005.8 947.1
09 16.08 З 3 10 км 6/6 600 м
[Cu Sc]
+32.4 +21.8 54 +41 +46 опасность
перегрева
1003.6 945.2
12 16.08 З 2 10 км мгла 8/8 600 м
[Cu Sc]
+32.0 +21.7 55 +41 +41 опасность
перегрева
1002.0 943.5 +33.4
15 16.08 нст 1 4000 м мгла 6/4 600 м
[Sc Ac trans Ci fib]
+28.6 +21.0 63 +36 +36 очень
душно
1004.3 945.1
18 16.08 штиль 0 4000 м мгла 6/4 600 м
[Sc Ac trans Ci fib]
+27.0 +21.1 70 +34 +34 очень
душно
1005.7 946.1
21 16.08 штиль 0 4000 м мгла 8/5 600 м
[Sc Ac trans Ci fib]
+26.8 +20.6 69 +33 +33 очень
душно
1004.8 945.2
00 17.08 нст 1 4000 м мгла 8/5 600 м
[Sc Ac trans Ci fib]
+25.6 +20.9 75 +32 +32 очень
душно
1005.5 945.7
03 17.08 З 2 4000 м мгла 4/3 600 м
[Sc Ci fib]
+27.2 +21.7 72 +35 +40 очень
душно
1006.0 946.6 +24.7 +33.4
06 17.08 З 2 4000 м мгла 9/6 600 м
[Sc Ci fib]
+30.8 +20.6 55 +38 +45 очень
душно
1005.6 946.8
09 17.08 нст 1 4000 м мгла 8/5 450 м
[Cu Sc Ac trans Ci fib]
+32.0 +21.7 55 +41 +47 опасность
перегрева
1003.3 944.8
12 17.08 штиль 0 4000 м мгла 8/5 600 м
[Cu Sc Ac trans Ci fib]
+31.8 +21.4 54 +40 +40 очень
душно
1002.5 944.0 +32.9
15 17.08 С 1 4000 м мгла 4/4 600 м
[Sc]
+28.8 +21.9 66 +37 +37 очень
душно
1005.0 945.8
18 17.08 штиль 0 4000 м мгла 4/4 600 м
[Sc]
+27.4 +21.6 71 +35 +35 очень
душно
1005.9 946.5
21 17.08 штиль 0 4000 м мгла 9/4 600 м
[Sc Ac trans]
+26.8 +21.8 74 +34 +34 очень
душно
1004.8 945.2
00 18.08 З 1 4000 м мгла 8/4 600 м
[Sc Ac trans]
+26.0 +22.2 80 +34 +34 очень
душно
1005.0 945.2
03 18.08 СЗ 3 4000 м мгла 9/5 600 м
[Sc Ac As Ci fib]
+26.2 +21.5 75 +33 +35 очень
душно
1007.7 947.9 +25.8 +32.9
06 18.08 СЗ 3 4000 м мгла 9/5 600 м
[Sc Ac As Ci fib]
+27.6 +21.2 68 +35 +41 очень
душно
1007.6 948.1
09 18.08 СЗ 2 4000 м слаб. морось 10/6 600 м
[Sc Ac As]
+27.0 +22.4 76 +35 +37 очень
душно
1006.3 946.7 0.0
12 18.08 нст 1 4000 м мгла 10/5 600 м
[Sc Ac trans Ci sp]
+28.6 +22.3 69 +37 +38 очень
душно
1004.9 945.7 +29.4 0.0

 

Местоположение метеостанции Хайдарабад (Телингана, Индия): широта 17.45 долгота 78.47 высота над уровнем моря 545 м.

В архиве по умолчанию представлена погода в Хайдарабаде за последнюю неделю. Архивные данные за месяц целиком и за предыдущие месяцы, начиная с января 2011 года, Вы можете получить, выбрав интересующий диапазон дат из раскрывающегося списка и нажав кнопку "Ввод!".


*Определитесь, кто Вы:
робот инопланетянин человек

Внимание! Время в таблицах - всемирное. Для получения местного времени необходимо прибавить поправку, которая равна 5.5 ч.

Смотрите также архив погоды в соседних городах и на ближайших метеорологических станциях:

Погода в Медаке (Телингана, Индия) (70 км)
Погода в Махбубнагаре (Телингана, Индия) (93 км)
Погода в Налгонде (Телингана, Индия) (97 км)
Погода в Бидаре (Карнатака, Индия) (112 км)
Погода в Ханамконде (Телингана, Индия) (133 км)
Погода в Низамабаде (Телингана, Индия) (141 км)
Погода в Рентчайнтале (Андхра-Прадеш, Индия) (152 км)
Погода в Аджере (Махараштра, Индия) (159 км)
Погода в Гулбарге (Карнатака, Индия) (172 км)
Погода в Рамагундэме (Телингана, Индия) (178 км)

Пояснения к столбцам:

Ветер - указаны скорость ветра в м/с - средняя за 10 мин, порывы в срок и между сроками (в фигурных скобках) и направление, откуда дует ветер: С - северный, СВ - северо-восточный, В - восточный, ЮВ - юго-восточный, Ю - южный, ЮЗ - юго-западный, З - западный, СЗ - северо-западный.
Видимость - горизонтальная дальность видимости в метрах или километрах. При видимости от 1 до 10 км при отсутствии осадков обычно наблюдается дымка, при ухудшении видимости до 1 км и менее - туман. В сухую погоду видимость может ухудшаться дымом, пылью или мглою.
Явления - указаны атмосферные явления, наблюдавшиеся в срок или в последний час перед сроком; фигурными скобками обозначены явления, наблюдавшиеся между сроками (за 1-3 часа до срока); квадратными скобками обозначены град или гололедные отложения с указанием их диаметра в мм.
Облачность - указаны через наклонную черту общая и нижняя облачность в баллах и высота нижней границы облаков в метрах; квадратными скобками обозначены формы облаков: Ci - перистые, Cs - перисто-слоистые, Cc - перисто-кучевые, Ac - высококучевые, As - высокослоистые, Sc - слоисто-кучевые, Ns - слоисто-дождевые, Cu - кучевые, Cb - кучево-дождевые. Подробнее классификацию облаков см. в Атласе облаков (PDF).
T - Температура воздуха - температура, измеренная на высоте 2 м над землей.
Td - Температура точки росы - температура, при понижении до которой содержащийся в воздухе водяной пар достигнет насыщения.
f - Относительная влажность воздуха - влажноcть воздуха, измеренная на высоте 2 м над землей.
Te - Эффективная температура - температура, которую ощущает одетый по сезону человек в тени. Характеристика душности погоды. При расчете учитывается влияние влажности воздуха и скорости ветра на теплоощущения человека.
Tes - Эффективная температура на солнце - температура, которую ощущает человек, с поправкой на солнечный нагрев. Характеристика знойности погоды. Зависит от высоты солнца над горизонтом, облачности и скорости ветра. Ночью, в пасмурную погоду, а также при ветре 12 м/с и более поправка равна нулю.
P - Атмосферное давление - приведенное к уровню моря атмосферное давление.
Po - Атмосферное давление - измеренное на уровне метеостанции атмосферное давление.
Tmin - Минимальная температура - минимум температуры воздуха на высоте 2 м над землей.
Tmax - Максимальная температура - максимум температуры воздуха на высоте 2 м над землей.
R - Количество осадков - Количество выпавших осадков за период времени, мм. При наведении курсора мыши на число - период времени, за который выпало указанное количество осадков.
R24 - Количество осадков - Количество выпавших осадков за 24 часа, мм.
S - Снежный покров - Высота снежного покрова, см. При наведении курсора мыши на число - состояние снежного покрова и степень покрытия местности в баллах.